This is the latest recevied weather packets stored in our database for station/object OK1LPD-6. If no packets are shown the sender has not sent any weather packets the latest 10 day(s).
| Time | Temp. | Humidity | Pressure | Rain* | Wind** | Luminosity | Snow |
|---|---|---|---|---|---|---|---|
| 1777524312 | 3.33° C | 61% | 1032 hPa | 0 mm | - | - | - |
| 1777523695 | 2.22° C | 63% | 1032.1 hPa | 0 mm | - | - | - |
| 1777523094 | 1.67° C | 68% | 1032 hPa | 0 mm | - | - | - |
| 1777522515 | 0.56° C | 72% | 1031.8 hPa | 0 mm | - | - | - |
| 1777521894 | -1.11° C | 72% | 1031.7 hPa | 0 mm | - | - | - |
| 1777521295 | -1.11° C | 71% | 1031.6 hPa | 0 mm | - | - | - |
| 1777520712 | -1.11° C | 71% | 1031.4 hPa | 0 mm | - | - | - |
| 1777520095 | -1.11° C | 71% | 1031.4 hPa | 0 mm | - | - | - |
| 1777519495 | -1.11° C | 71% | 1031.3 hPa | 0 mm | - | - | - |
| 1777518914 | -1.11° C | 71% | 1031.3 hPa | 0 mm | - | - | - |
| 1777518295 | -1.11° C | 71% | 1031.1 hPa | 0 mm | - | - | - |
| 1777517695 | -1.11° C | 71% | 1031.3 hPa | 0 mm | - | - | - |
| 1777517113 | -1.11° C | 69% | 1031.2 hPa | 0 mm | - | - | - |
| 1777516495 | -1.11° C | 68% | 1031.3 hPa | 0 mm | - | - | - |
| 1777515895 | -0.56° C | 69% | 1031.1 hPa | 0 mm | - | - | - |
| 1777515315 | -0.56° C | 67% | 1031.2 hPa | 0 mm | - | - | - |
| 1777514695 | -0.56° C | 68% | 1031.2 hPa | 0 mm | - | - | - |
| 1777514095 | 0° C | 68% | 1031.1 hPa | 0 mm | - | - | - |
| 1777513513 | 0° C | 68% | 1031.2 hPa | 0 mm | - | - | - |
| 1777512895 | 0° C | 67% | 1031 hPa | 0 mm | - | - | - |
| 1777512295 | 0.56° C | 69% | 1031 hPa | 0 mm | - | - | - |
| 1777511716 | 0° C | 66% | 1030.8 hPa | 0 mm | - | - | - |
| 1777511095 | 0.56° C | 65% | 1031 hPa | 0 mm | - | - | - |
| 1777510496 | 0.56° C | 64% | 1030.9 hPa | 0 mm | - | - | - |
| 1777509913 | 0.56° C | 64% | 1031.1 hPa | 0 mm | - | - | - |
* Rain latest hour (hover to see other rain measurements)
** Current wind speed in m/s (hover to see current wind gust speed)